Probability
0 0 0 0 0 0 0 0 0 0 0 0 0 0 0 0 0 0 0 0 0 0 0 0 0 0 0 0 0 0 0 0 0 0 0 0 0 0 0 0 0 0 0
0 0 0 0 0 0 0 0 0 0 0 0 0 0 0 0 0 0 0 0 0 0 0 0 0 0 0 0 0 0 0 0 0 0 0 0 0 0 0 0 0 0 0
0 0 0 0 0 0 0 0 0 0 0 0 0 0 0 0 0 0 0 0 0 0 0 0 0 0 0 0 0 0 0 0 0 0 0 0 0 0 0 0 0 0 0
0 0 0 0 0 0 0 0 0 0 0 0 0 0 0 0 0 0 0 0 0 0 0 0 0 0 0 0 0 0 0 0 0 0 0 0 0 0 0 0 0 0 0
0 0 0 0 0 0 0 0 0 0 0 0 0 0 0 0 0 0 0 0 0 0 0 0 0 0 0 0 0 0 0 0 0 0 0 0 0 0 0 0 0 0 0
0 0 0 0 0 0 0 0 0 0 0 0 0 0 0 0 0 0 0 0 0 0 0 0 0 0 0 0 0 0 0 0 0 0 0 0 0 0 0 0 0 0 0
0 0 0 0 0 0 0 0 0 0 0 0 0 0 0 0 0 0 0 0 0 0 0 0 0 0 0 0 0 0 0 0 0 0 0 0 0 0 0 0 0 0 0
0 0 0 0 0 0 0 0 0 0 0 0 0 0 0 0 0 0 0 0 0 0 0 0 0 0 0 0 0 0 0 0 0 0 0 0 0 0 0 0 0 0 0
0 0 0 0 0 0 0 0 0 0 0 0 0 0 0 0 0 0 0 0 0 0 0 0 0 0 0 0 0 0 0 0 0 0 0 0 0 0 0 0 0 0 0
0 0 0 0 0 0 0 0 0 0 0 0 0 0 0 0 0 0 0 0 0 0 0 0 0 0 0 0 0 0 0 0 0 0 0 0 0 0 0 0 0 0 0
0 0 0 0 0 0 0 0 0 0 0 0 0 0 0 0 0 0 0 0 0 0 0 0 0 0 0 0 0 0 0 0 0 0 0 0 0 0 0 0 0 0 0
0 0 0 0 0 0 0 0 0 0 0 0 0 0 0 0 0 0 0 0 0 0 0 0 0 0 0 0 0 0 0 0 0 0 0 0 0 0 0 0 0 0 0
0 0 0 0 0 0 0 0 0 0 0 0 0 0 0 0 0 0 0 0 0 0 0 0 0 0 0 0 0 0 0 0 0 0 0 0 0 0 0 0 0 0 0
0 0 0 0 0 0 0 0 0 0 0 0 0 0 0 0 0 0 0 0 0 0 0 0 0 0 0 0 0 0 0 0 0 0 0 0 0 0 0 0 0 0 0
0 0 0 0 0 0 0 0 0 0 0 0 0 0 0 0 0 0 0 0 0 0 0 0 0 0 0 0 0 0 0 0 0 0 0 0 0 0 0 0 0 0 0
0 0 0 0 0 0 0 0 0 0 0 0 0 0 0 0 0 0 0 0 0 0 0 0 0 0 0 0 0 0 0 0 0 0 0 0 0 0 0 0 0 0 0
0 0 0 0 0 0 0 0 0 0 0 0 0 0 0 0 0 0 0 0 0 0 0 0 0 0 0 0 0 0 0 0 0 0 0 0 0 0 0 0 0 0 0
0 0 0 0 0 0 0 0 0 0 0 0 0 0 0 0 0 0 0 0 0 0 0 0 0 0 0 0 0 0 0 0 0 0 0 0 0 0 0 0 0 0 0
0 0 0 0 0 0 0 0 0 0 0 0 0 0 0 0 0 0 0 0 0 0 0 0 0 0 0 0 0 0 0 0 0 0 0 0 0 0 0 0 0 0 0
0 0 0 0 0 0 0 0 0 0 0 0 0 0 0 0 0 0 0 0 0 0 0 0 0 0 0 0 0 0 0 0 0 0 0 0 0 0 0 0 0 0 0
0 0 0 0 0 0 0 0 0 0 0 0 0 0 0 0 0 0 0 0 0 0 0 0 0 0 0 0 0 0 0 0 0 0 0 0 0 0 0 0 0 0 0
0 0 0 0 0 0 0 0 0 0 0 0 0 0 0 0 0 0 0 0 0 0 0 0 0 0 0 0 0 0 0 0 0 0 0 0 0 0 0 0 0 0 0
0 0 0 0 0 0 0 0 0 0 0 0 0 0 0 0 0 0 0 0 0 0 0 0 0 0 0 0 0 0 0 0 0 0 0 0 0 0 0 0 0 0 0
0 0 0 0 0 0 0 0 0 0 0 0 0 0 0 0 0 0 0 0 0 0 0 0 0 0 0 0 0 0 0 0 0 0 0 0 0 0 0 0 0 0 0
0 0 0 0 0 0 0 0 0 0 0 0 0 0 0 0 0 0 0 0 0 0 0 0 0 0 0 0 0 0 0 0 0 0 0 0 0 0 0 0 0 0 0
0 0 0 0 0 0 0 0 0 0 0 0 0 0 0 0 0 0 0 0 0 0 0 0 0 0 0 0 0 0 0 0 0 0 0 0 0 0 0 0 0 0 0
Wind_Speed
5 5 4 4 4 3 4 3 3 4 4 3 2 2 2 2 2 1 2 4 3 3 5 7 7 7 7 7 6 6 6 6 6 6 7 7 8 8 8 8 9 9 10
5 5 5 5 4 4 4 4 4 4 3 3 3 3 2 2 2 2 1 2 2 1 3 5 6 7 7 7 6 6 6 6 5 5 6 6 6 6 7 7 7 8 8
7 6 5 5 5 4 5 4 5 4 3 3 4 4 3 3 3 3 3 2 2 1 1 3 6 7 7 7 7 6 6 6 6 5 5 5 5 5 6 6 6 6 6
8 7 6 5 5 5 5 5 5 5 4 4 4 4 3 3 4 4 4 4 3 3 3 3 5 6 7 8 8 8 8 7 7 6 6 6 6 6 6 6 6 5 5
10 8 6 5 6 5 5 5 5 5 5 5 4 4 4 4 5 5 6 6 5 5 4 4 4 5 7 9 10 10 10 10 9 9 8 8 8 7 7 7 6 6 5
11 9 6 7 7 6 6 6 6 5 4 4 4 4 4 5 5 6 7 6 5 6 6 6 5 5 8 10 11 12 12 12 12 11 11 11 10 10 9 9 8 7 7
11 10 7 8 8 8 8 8 6 6 5 3 3 4 5 7 8 7 6 6 7 7 6 6 6 5 5 11 14 14 15 15 15 14 14 13 13 12 12 11 10 10 9
12 10 11 9 10 8 9 9 8 5 4 5 4 3 4 5 8 8 7 7 8 6 7 7 7 7 6 6 9 15 17 17 17 16 16 16 15 15 14 13 13 12 11
12 12 12 11 10 10 9 11 10 9 7 6 5 5 4 6 2 3 7 7 7 7 7 6 8 8 8 7 7 12 16 16 18 18 18 18 18 17 17 16 15 14 13
11 12 11 11 10 9 10 10 11 9 7 7 6 6 4 1 2 3 3 5 8 9 9 8 8 9 9 8 9 12 14 16 18 20 20 20 20 19 19 18 18 17 16
9 10 10 10 10 9 10 9 10 10 8 8 7 5 5 4 4 4 6 4 4 7 8 9 8 9 10 10 9 13 17 19 20 20 20 21 21 21 21 20 20 19 18
4 7 7 8 9 8 10 10 10 12 10 9 7 6 6 5 6 7 9 7 6 5 6 8 9 9 9 10 13 16 19 22 23 22 22 21 22 22 22 22 22 21 20
3 4 4 5 6 7 8 8 9 10 11 11 10 8 8 7 4 4 5 5 5 3 4 6 9 9 9 9 10 16 19 23 24 25 24 23 23 23 23 23 23 22 20
1 1 2 3 4 4 4 6 7 8 7 10 11 10 8 7 7 7 5 4 5 5 6 9 6 9 9 9 12 17 14 23 25 26 26 25 25 25 25 24 24 23 21
1 1 1 1 2 2 3 4 4 5 6 8 8 9 9 7 7 7 7 6 6 7 7 6 5 7 7 8 12 11 12 18 24 26 26 26 26 26 25 25 25 24 23
2 1 1 1 1 1 2 3 3 4 5 6 6 8 9 7 7 7 7 7 8 8 9 4 5 5 6 7 11 11 12 17 21 24 25 26 26 26 26 26 26 25 24
2 2 1 1 1 1 2 2 3 3 5 5 5 7 9 8 7 7 7 7 8 9 13 10 5 5 7 9 8 9 10 11 11 21 25 26 26 26 26 26 25 25 24
2 2 2 2 2 2 2 2 3 4 5 6 6 7 8 6 8 7 7 9 9 9 10 14 8 6 8 8 9 9 9 9 10 17 23 25 26 26 26 26 25 25 24
2 2 2 2 2 2 3 3 3 4 5 6 6 7 7 7 8 7 8 8 7 7 9 11 11 6 5 5 7 8 9 9 10 12 18 22 25 25 26 25 25 24 22
3 3 2 2 2 3 3 3 3 4 5 6 6 6 7 7 8 8 7 8 7 8 8 10 10 8 5 3 4 7 8 8 9 8 13 15 19 23 25 25 24 22 22
3 3 2 3 3 3 3 4 4 5 6 6 6 6 7 7 9 9 7 8 7 8 8 9 10 8 6 4 6 6 8 7 8 7 8 9 10 11 13 19 21 21 23
3 3 3 3 3 3 5 7 6 5 6 7 7 7 7 7 8 11 13 13 12 10 9 9 9 10 10 8 6 6 6 6 7 6 8 9 8 10 9 9 16 22 23
3 3 3 4 4 5 7 8 7 6 6 7 7 7 6 6 7 8 10 12 12 14 15 12 12 13 11 8 7 8 8 8 8 3 5 7 7 9 8 9 18 20 21
3 3 4 4 5 5 8 9 8 6 7 7 7 7 8 8 7 8 8 9 9 10 11 10 11 11 9 8 7 8 8 7 5 3 6 6 5 7 6 7 15 19 20
4 4 4 5 5 6 8 9 8 5 6 7 7 7 7 8 10 12 10 10 11 9 11 13 15 15 16 15 10 6 6 5 6 5 5 5 3 4 4 6 8 15 17
4 5 5 5 6 7 9 10 9 5 6 7 6 6 7 8 12 13 9 9 11 10 7 8 10 11 10 10 11 9 7 6 5 4 5 5 3 3 3 3 4 5 8
Wind_Direction
178 173 170 172 171 164 167 160 152 147 144 137 131 138 138 124 122 123 108 58 55 125 143 143 140 138 133 129 127 125 122 118 117 114 110 110 108 106 104 101 98 95 92
184 180 179 181 181 180 176 177 169 168 164 162 161 163 174 171 170 179 172 137 74 76 165 167 162 158 154 152 151 151 148 144 143 137 132 128 124 120 117 112 108 103 99
193 188 186 187 185 180 176 176 172 180 180 181 182 183 193 201 203 204 207 216 196 164 190 192 188 183 178 176 176 177 174 171 170 166 162 155 149 146 140 133 127 120 113
196 193 194 192 181 178 183 184 183 189 193 199 200 198 206 209 215 220 219 222 224 216 201 209 213 205 201 199 196 195 195 194 193 192 190 185 181 177 170 162 154 144 136
199 198 198 191 181 185 190 188 195 199 202 204 207 210 218 223 224 226 226 226 230 233 231 212 222 224 221 218 214 210 208 207 207 207 206 205 202 198 192 186 181 173 165
200 201 200 192 186 191 195 197 198 202 214 205 207 227 233 237 238 236 234 230 231 233 237 233 226 221 230 230 228 224 219 216 214 214 215 215 214 211 207 203 199 194 188
200 201 200 195 194 202 203 197 190 199 205 184 202 238 242 236 239 235 234 236 231 229 234 236 237 234 228 232 235 235 231 226 221 219 220 221 221 219 216 214 211 208 203
203 203 205 201 198 202 203 200 194 193 189 183 197 212 250 236 226 226 226 232 237 233 234 234 238 237 237 234 236 239 238 235 229 225 224 224 225 223 220 218 217 215 212
208 207 209 206 203 203 207 205 202 199 199 198 209 204 218 244 240 218 229 231 230 232 236 234 236 237 239 240 241 239 242 242 238 233 229 228 228 227 226 223 221 219 219
215 214 213 212 209 208 212 208 205 208 203 202 208 232 244 294 238 268 229 231 235 236 233 232 234 235 235 236 239 242 242 242 240 238 236 234 232 231 230 228 225 222 221
217 217 215 213 213 213 216 211 204 207 211 212 201 196 214 229 240 248 265 245 229 234 234 232 234 235 232 232 235 236 238 239 240 240 239 237 237 236 234 232 229 225 224
216 219 217 216 215 215 216 215 209 209 214 217 211 199 194 198 206 217 244 255 257 241 225 230 232 234 232 231 234 235 236 237 238 239 239 238 238 238 238 237 234 230 227
217 226 219 222 222 222 220 214 212 213 214 216 218 218 220 225 204 206 236 256 262 261 243 237 231 231 232 232 235 233 237 239 240 240 239 238 238 238 239 239 238 235 232
219 241 223 226 229 227 223 218 217 216 213 219 225 225 226 227 215 213 220 231 262 257 241 244 225 222 227 228 234 232 237 238 240 241 240 239 239 238 237 238 239 238 236
27 324 254 242 247 237 230 222 224 219 218 223 228 229 232 233 226 224 224 221 242 270 268 245 229 218 221 227 232 231 234 238 239 240 242 241 240 238 238 238 238 238 236
45 18 348 312 291 282 259 240 241 233 229 231 230 233 235 237 233 227 226 228 230 251 270 258 238 222 211 224 230 232 236 238 240 242 242 242 242 240 239 238 239 239 237
42 29 1 343 335 321 303 268 260 258 249 249 242 241 244 243 241 236 230 229 232 237 262 270 253 241 221 229 233 233 237 237 239 240 242 243 243 242 241 240 240 239 238
44 24 6 355 346 330 312 290 281 275 267 263 259 256 256 254 250 247 241 238 238 235 250 271 268 247 233 231 233 234 234 235 239 241 241 242 242 242 242 241 240 239 238
44 35 17 2 345 332 315 302 289 282 276 274 272 267 267 264 261 258 255 254 252 249 249 263 272 259 247 229 233 238 239 240 241 243 244 244 244 244 243 242 239 237 237
32 23 12 354 335 322 313 308 297 289 284 280 277 273 272 267 267 268 264 261 261 261 258 262 269 266 252 221 221 240 244 236 240 235 239 241 243 244 244 242 239 236 235
22 10 357 347 337 324 318 311 301 293 290 288 284 277 275 273 271 270 269 271 267 265 264 264 268 270 258 229 231 228 244 250 243 227 234 235 237 237 237 240 238 234 233
10 359 349 335 325 313 310 308 302 292 285 282 283 284 282 275 273 272 271 271 269 268 269 268 270 268 269 260 252 239 244 249 254 215 221 235 225 233 232 231 233 233 233
350 339 332 324 314 313 318 313 305 292 282 279 281 284 282 278 276 278 279 277 272 266 264 266 269 270 275 271 261 253 242 243 253 222 208 239 224 233 230 231 234 234 234
332 321 317 314 307 307 316 314 309 293 285 282 280 279 282 285 281 281 282 278 274 270 267 265 266 272 275 274 258 258 257 253 256 219 200 238 230 234 233 232 234 234 234
319 312 304 303 299 301 309 311 309 294 286 286 283 278 278 281 281 283 281 280 281 278 274 267 267 272 273 271 265 258 246 241 253 237 201 228 233 235 238 238 237 237 237
300 302 296 291 288 291 300 305 306 291 288 290 286 277 270 271 282 284 278 278 281 286 285 282 276 275 273 266 256 246 242 240 252 248 193 205 215 203 237 224 228 232 237